Weerawila Airport

Jump to: basic info | weather | frequencies | runways | comments

Related pages: nearby airports | nearby navaids | notams | map

Basic information (top)

Codes: WRZ VCCW
Location: lon 6.254490, lat 81.235199, elev 50 ft / 15 m msl
Status: small_airport
Scheduled airline service: yes
Links: Wikipedia Mobile

Weather (top)

Current conditions for Mattala Rajapaksa International Airport 7nm (13km) WNW (rec'd 2015/02/27 06:10Z):

VCRI 270610Z 18004KT 120V240 9000 BKN017 FEW018CB 29/24 Q1011 NOSIG RMK N/NW

Airport forecast for Bandaranaike International Colombo Airport 98nm (181km) NW (rec'd 2015/02/26 00:00Z):

TAF VCBI 262140Z 2700/2806 04005KT 9999 SCT016 TX31/2708Z TN25/2800Z 
      TEMPO 2700/2703 7000 
      BECMG 2703/2705 28010KT PROB30 
      TEMPO 2710/2716 7000 -TSRA/SHRA SCT010 BKN016 FEW020CB 
      BECMG 2718/2719 VRB05KT

Frequencies (top)

Verify before use: may be inaccurate or out of date.

TWR: 118.1 MHz (TWR)

Runways (top)

07/25: 4,000 x 93 ft (1,219 x 28 m) — paved — not lighted

Latest comments (top)

No comments yet for Weerawila Airport

More... (top)

See also NOTAMs and nearby airports and navaids, or visit the Weerawila Airport page at the main OurAirports website..